[[{"header":{"parameterUnit":"m.s-1","parameterCategory":1,"la1":30.2991,"la2":30.254,"lo1":-89.0895,"lo2":-89.0444,"dy":0.0017,"dx":0.0017,"nx":28,"ny":28,"refTime":"2023-09-16T03:00:00:Z","depth":0,"parameterNumber":2,"parameterNumberName":"U-component_of_WINDS"},"data":[0,0,0,0,0,0,0,0,0,0,0,0,0,0,0,0,0,0,0,0,0,0,0,0,0,0,0,0,0,0,0,0,0,0,0,0,0,0,0,0,0,0,0,0,0,0,0,0,0,0,0,0,0,0,0,0,0,0,1.1214,1.1215,0,1.1342,1.1343,1.1345,1.1357,1.1355,1.1354,1.1353,1.1479,1.1483,1.1488,0,0,0,0,0,0,0,0,0,0,0,0,0,1.0976,1.098,1.1214,1.1216,1.1217,1.1342,1.1343,1.1345,1.1357,1.1355,1.1354,1.1352,1.1477,1.1483,1.1488,0,0,0,0,0,0,0,0,0,0,0,0,0,1.1089,1.0981,1.1214,1.1238,1.1242,1.1341,1.1343,1.1346,1.1357,1.1355,1.1353,1.1351,1.1475,1.1482,1.1489,1.1571,0,0,1.151,1.1513,0,0,0,0,0,0,0,0,1.1082,1.1097,1.1233,1.1237,1.1241,1.1331,1.1306,1.1421,1.1358,1.1313,1.1353,1.135,1.1431,1.1441,1.147,1.1577,1.1583,1.1511,1.1515,1.1518,1.152,0,0,0,0,0,0,0,1.1074,1.1092,1.1264,1.1235,1.124,1.1241,1.1255,1.1327,1.1381,1.1317,1.1318,1.1333,1.1433,1.1463,1.1473,1.1584,1.151,1.1517,1.1521,1.1523,1.1766,1.1768,0,0,0,0,0,0,1.1063,1.1085,1.126,1.1268,1.1155,1.1247,1.1263,1.1304,1.1381,1.1391,1.1335,1.1333,1.1452,1.1465,1.1477,1.1579,1.1518,1.1524,1.1528,1.1764,1.1766,1.1769,0,0,0,0,0,0,1.1058,1.1078,1.1255,1.1177,1.12,1.1254,1.13,1.1308,1.1338,1.1395,1.1404,1.1356,1.1451,1.1467,1.1548,1.1583,1.1527,1.1533,1.1761,1.1764,1.1768,1.1783,0,0,0,0,0,0,1.1051,1.1076,1.1109,1.1178,1.1204,1.1325,1.1302,1.1312,1.1351,1.135,1.1417,1.1426,1.1451,1.1538,1.1555,1.1592,1.1539,1.1758,1.1762,1.1767,1.1779,1.1786,1.1792,0,0,0,0,0,1.1042,1.1107,1.1111,1.1132,1.1247,1.1328,1.1342,1.1371,1.1353,1.1386,1.1422,1.1424,1.1577,1.1546,1.1565,1.1605,1.1756,1.1761,1.1766,1.1776,1.1785,1.1792,0,0,0,0,0,0,1.1039,1.1117,1.1121,1.1211,1.1263,1.1329,1.1372,1.1379,1.1435,1.1432,1.1463,1.1479,1.1558,1.1589,1.1554,1.1689,1.1664,1.1674,1.1665,1.1674,1.168,1.1671,1.1545,0,0,0,0,0,1.1049,1.111,1.1174,1.1246,1.1272,1.1318,1.1354,1.1372,1.1426,1.1447,1.1489,1.1541,1.16,1.1639,1.1697,1.1784,1.1798,1.182,1.1827,1.1832,1.184,1.1888,1.1898,1.1786,1.1786,1.1786,0,0,1.107,1.112,1.1156,1.1247,1.1289,1.135,1.1336,1.1401,1.1446,1.1457,1.1536,1.1569,1.1628,1.1712,1.1752,1.1741,1.1874,1.1839,1.1842,1.1847,1.1894,1.1905,1.1914,1.179,1.1789,1.1788,0,0,1.1139,1.1183,1.1249,1.1292,1.1357,1.1387,1.1402,1.1469,1.1491,1.1572,1.1581,1.1634,1.1736,1.1778,1.1813,1.1899,1.1902,1.1917,1.195,1.1997,1.2006,1.2014,1.2044,1.2055,1.1924,1.1924,1.1924,0,1.1156,1.1251,1.1281,1.1347,1.1387,1.1401,1.1467,1.1507,1.1586,1.1613,1.16,1.1729,1.1769,1.1864,1.1885,1.1913,1.1931,1.1909,1.2002,1.2011,1.2019,1.2048,1.2059,1.1925,1.1925,1.1925,1.1925,0,1.1268,1.1333,1.1379,1.1458,1.1502,1.1567,1.1607,1.1648,1.1662,1.1692,1.1774,1.1823,1.1892,1.1915,1.1929,1.2012,1.2003,1.1996,1.1972,1.203,1.2058,1.207,1.1927,1.1927,1.1926,1.1926,0,0,1.1339,1.1435,1.1451,1.1488,1.156,1.161,1.1676,1.1745,1.1779,1.1833,1.1889,1.1975,1.1969,1.2008,1.2026,1.2067,1.2132,1.2055,1.2057,1.2068,1.2227,1.2232,1.2244,1.2135,1.2137,1.2139,1.2222,0,1.1417,1.1537,1.1567,1.1668,1.1728,1.1742,1.1799,1.1849,1.188,1.1934,1.1966,1.2027,1.2015,1.2039,1.208,1.2116,1.2164,1.211,1.2185,1.2188,1.2171,1.2259,1.2265,1.2341,1.2233,1.2235,1.2236,0,1.1524,1.1583,1.1691,1.1757,1.1783,1.1834,1.1899,1.1951,1.2008,1.2027,1.2071,1.2085,1.2153,1.2125,1.2218,1.218,1.2213,1.2235,1.2239,1.2247,1.2216,1.227,1.2366,1.2377,1.2254,1.2252,1.2251,0,1.1566,1.1672,1.175,1.178,1.1859,1.1894,1.1928,1.1983,1.2022,1.2079,1.2104,1.2167,1.2201,1.2249,1.2279,1.2257,1.2369,1.2345,1.2386,1.2385,1.2409,1.2408,1.2512,1.243,1.243,1.2429,1.2429,0,1.165,1.1715,1.177,1.1818,1.1892,1.1925,1.1996,1.203,1.2078,1.2132,1.2147,1.2197,1.2234,1.2288,1.2312,1.2385,1.24,1.2417,1.2422,1.2416,1.2414,1.2437,1.2433,1.2433,1.2432,1.2431,1.2431,0,1.1709,1.1748,1.1835,1.1902,1.1921,1.1972,1.2029,1.2075,1.2106,1.2174,1.2192,1.2239,1.2304,1.2339,1.242,1.2436,1.2518,1.252,1.2499,1.2502,1.2541,1.2537,1.2665,1.2683,1.2589,1.2589,1.259,0,1.1761,1.1812,1.1885,1.1924,1.1959,1.202,1.2061,1.2094,1.2136,1.2204,1.2242,1.2308,1.2363,1.2466,1.2507,1.2568,1.2572,1.2613,1.2582,1.2573,1.2573,1.257,1.2575,1.2618,1.2619,1.262,1.262,0,1.1848,1.1865,1.1925,1.1991,1.204,1.2093,1.2146,1.2176,1.2218,1.2263,1.2331,1.2374,1.2457,1.2522,1.2587,1.262,1.2627,1.263,1.2643,1.2637,1.2623,1.2631,1.2515,1.2627,1.2626,1.2626,1.2625,1.2625,1.1906,1.1952,1.2011,1.2077,1.212,1.2169,1.2216,1.2254,1.2311,1.2383,1.2399,1.247,1.2524,1.2612,1.2647,1.2702,1.2694,1.2713,1.2717,1.2722,1.2723,1.2614,1.2714,1.2714,1.2714,1.2713,1.2713,0,1.1995,1.2034,1.2094,1.2168,1.2219,1.2223,1.2281,1.2323,1.2387,1.2437,1.2492,1.2569,1.2632,1.2678,1.2742,1.2777,1.2782,1.2793,1.2791,1.2798,1.2727,1.271,1.2788,1.2788,1.2788,1.2788,1.2788,1.2788,1.2047,1.2126,1.215,1.2249,1.2287,1.2359,1.2392,1.2437,1.2478,1.2564,1.2617,1.2647,1.2696,1.2763,1.2821,1.2833,1.2856,1.2866,1.2878,1.2811,1.2803,1.2795,1.2779,1.2871,1.2871,1.2945,1.2945,1.2946]},{"header":{"parameterUnit":"m.s-1","parameterCategory":1,"la1":30.2991,"la2":30.254,"lo1":-89.0895,"lo2":-89.0444,"dy":0.0017,"dx":0.0017,"nx":28,"ny":28,"refTime":"2023-09-16T03:00:00:Z","depth":0,"parameterNumber":3,"parameterNumberName":"V-component_of_WINDS"},"data":[0,0,0,0,0,0,0,0,0,0,0,0,0,0,0,0,0,0,0,0,0,0,0,0,0,0,0,0,0,0,0,0,0,0,0,0,0,0,0,0,0,0,0,0,0,0,0,0,0,0,0,0,0,0,0,0,0,0,1.2281,1.2282,0,1.2427,1.2429,1.2431,1.2453,1.2451,1.245,1.2449,1.259,1.2595,1.26,0,0,0,0,0,0,0,0,0,0,0,0,0,1.2014,1.2018,1.2281,1.2283,1.2284,1.2427,1.2429,1.2431,1.2453,1.2451,1.245,1.2448,1.2589,1.2595,1.2601,0,0,0,0,0,0,0,0,0,0,0,0,0,1.2142,1.202,1.228,1.2313,1.2317,1.2427,1.2429,1.2431,1.2453,1.2451,1.2449,1.2447,1.2587,1.2594,1.2601,1.2686,0,0,1.2624,1.2627,0,0,0,0,0,0,0,0,1.2134,1.2151,1.2306,1.2311,1.2316,1.242,1.2387,1.2517,1.2454,1.2401,1.2449,1.2446,1.2535,1.2546,1.2578,1.2693,1.2699,1.2625,1.2629,1.2633,1.2635,0,0,0,0,0,0,0,1.2125,1.2145,1.2338,1.2308,1.2314,1.2318,1.2334,1.2411,1.2477,1.2406,1.2408,1.2425,1.2537,1.257,1.2581,1.2701,1.2625,1.2631,1.2636,1.2639,1.2896,1.2899,0,0,0,0,0,0,1.2112,1.2138,1.2334,1.2343,1.2219,1.2324,1.2342,1.2388,1.2476,1.2488,1.2427,1.2426,1.2559,1.2572,1.2586,1.2695,1.2633,1.264,1.2644,1.2894,1.2897,1.29,0,0,0,0,0,0,1.2106,1.2129,1.2328,1.2241,1.2267,1.2331,1.2382,1.2392,1.2426,1.2492,1.2503,1.245,1.2558,1.2576,1.2663,1.27,1.2643,1.265,1.2891,1.2895,1.2898,1.291,0,0,0,0,0,0,1.2098,1.2127,1.2161,1.2242,1.2271,1.2404,1.2385,1.2396,1.244,1.244,1.2516,1.2527,1.2558,1.2651,1.267,1.2709,1.2655,1.2888,1.2893,1.2897,1.2906,1.2913,1.2919,0,0,0,0,0,1.2089,1.2156,1.2163,1.2186,1.2316,1.2406,1.2422,1.2459,1.2443,1.2477,1.252,1.2525,1.2692,1.266,1.2681,1.2723,1.2886,1.2892,1.2897,1.2904,1.2912,1.2919,0,0,0,0,0,0,1.2074,1.2167,1.2176,1.2271,1.2331,1.2409,1.2454,1.2466,1.2529,1.2526,1.2565,1.2582,1.2668,1.2703,1.2666,1.2811,1.2788,1.2797,1.2785,1.2794,1.28,1.2791,1.2662,0,0,0,0,0,1.2083,1.2151,1.2227,1.2304,1.2334,1.2389,1.2429,1.2452,1.2514,1.2539,1.2588,1.2646,1.2712,1.2754,1.2818,1.2911,1.2929,1.295,1.2956,1.2961,1.297,1.3024,1.3035,1.2917,1.2917,1.2917,0,0,1.21,1.2159,1.2199,1.2303,1.2352,1.242,1.241,1.2481,1.2532,1.2549,1.2636,1.2674,1.2741,1.2832,1.2874,1.2864,1.3006,1.2968,1.2971,1.2978,1.3031,1.3042,1.3052,1.2921,1.292,1.2919,0,0,1.2168,1.2218,1.229,1.2341,1.2416,1.2453,1.247,1.2548,1.2575,1.2663,1.2678,1.2737,1.2849,1.2898,1.2937,1.3026,1.3033,1.3045,1.3079,1.3132,1.3141,1.3149,1.3184,1.3195,1.3053,1.3053,1.3053,0,1.2179,1.2285,1.2325,1.2398,1.2444,1.2465,1.2538,1.2584,1.2675,1.2705,1.2693,1.2837,1.2883,1.2988,1.301,1.304,1.3061,1.3037,1.3137,1.3146,1.3154,1.3187,1.32,1.3054,1.3054,1.3054,1.3054,0,1.2297,1.237,1.2418,1.2511,1.2562,1.2633,1.2683,1.2729,1.2748,1.2785,1.2875,1.2932,1.301,1.3036,1.3052,1.3143,1.3135,1.3129,1.3107,1.3166,1.3198,1.3211,1.3056,1.3055,1.3055,1.3055,0,0,1.2359,1.2476,1.2493,1.2537,1.2623,1.2679,1.2751,1.2831,1.2871,1.2932,1.2995,1.3091,1.3088,1.3132,1.3155,1.3201,1.3271,1.319,1.3192,1.3205,1.3377,1.3383,1.3397,1.3275,1.3278,1.328,1.3372,0,1.2439,1.2574,1.2613,1.2726,1.2795,1.2817,1.2881,1.294,1.2977,1.3039,1.3078,1.3147,1.3135,1.3163,1.3209,1.3252,1.3306,1.3246,1.3334,1.3337,1.332,1.3413,1.3419,1.3504,1.3385,1.3387,1.3388,0,1.2551,1.262,1.2741,1.2822,1.2852,1.2909,1.2987,1.3046,1.3113,1.3136,1.3188,1.3207,1.3283,1.3255,1.3361,1.3319,1.3357,1.3384,1.3388,1.34,1.3368,1.343,1.3531,1.3545,1.3407,1.3406,1.3405,0,1.2588,1.2711,1.2801,1.2836,1.2931,1.2972,1.3012,1.3078,1.3124,1.319,1.3221,1.3293,1.3334,1.3389,1.3427,1.3403,1.3531,1.3505,1.3553,1.3552,1.358,1.3578,1.3692,1.36,1.36,1.3599,1.3599,0,1.2675,1.2749,1.282,1.2875,1.2958,1.3001,1.3082,1.3123,1.3181,1.3244,1.3265,1.3323,1.3369,1.3433,1.3462,1.3547,1.3563,1.3585,1.3592,1.3585,1.3583,1.3612,1.3608,1.3603,1.3602,1.3601,1.3601,0,1.2732,1.2782,1.2882,1.2965,1.2988,1.3046,1.3116,1.317,1.3208,1.3287,1.3308,1.3367,1.3444,1.3487,1.3581,1.3602,1.3697,1.3699,1.3676,1.368,1.3726,1.3722,1.3864,1.3886,1.3777,1.3778,1.3779,0,1.2786,1.2844,1.2935,1.298,1.3023,1.3095,1.3144,1.3187,1.3237,1.3319,1.3363,1.3442,1.3507,1.3628,1.3678,1.3751,1.3758,1.3802,1.3769,1.376,1.3762,1.376,1.3767,1.3809,1.381,1.3811,1.3811,0,1.2877,1.2899,1.297,1.3051,1.3109,1.3174,1.3237,1.3272,1.3326,1.338,1.3461,1.3512,1.3612,1.369,1.3767,1.3807,1.3819,1.3822,1.3837,1.3831,1.3817,1.3828,1.3695,1.3818,1.3818,1.3817,1.3817,1.3817,1.2936,1.299,1.3064,1.3143,1.3196,1.3256,1.3312,1.3359,1.3428,1.3515,1.3535,1.3621,1.3687,1.3794,1.3836,1.3902,1.3894,1.3915,1.3921,1.3926,1.393,1.3804,1.3915,1.3915,1.3915,1.3915,1.3915,0,1.3031,1.308,1.3152,1.3243,1.3305,1.3314,1.3385,1.3436,1.3512,1.3574,1.364,1.3733,1.381,1.3867,1.3944,1.3987,1.3994,1.4006,1.4004,1.4014,1.3931,1.3912,1.3999,1.3999,1.3999,1.3999,1.3999,1.3999,1.3088,1.3181,1.3213,1.3333,1.3381,1.3468,1.3508,1.3563,1.3614,1.3719,1.3784,1.3822,1.3883,1.3965,1.4036,1.405,1.4079,1.4091,1.4106,1.4028,1.4019,1.4011,1.3993,1.4096,1.4096,1.4184,1.4185,1.4185]}]]